Time,TemperatureF,DewpointF,PressureIn,WindDirection,WindDirectionDegrees,WindSpeedMPH,WindSpeedGustMPH,Humidity,HourlyPrecipIn,Conditions,Clouds,dailyrainin,SoftwareType,DateUTC
2013-02-07 00:00:00,-3.1,-3.7,29.47,North,0,0.0,0.0,97,0.00,,,0.00,VWS V14.01,2013-02-07 05:00:00,
2013-02-07 00:01:00,-3.1,-3.7,29.47,North,0,0.0,0.0,97,0.00,,,0.00,VWS V14.01,2013-02-07 05:01:00,
2013-02-07 00:03:00,-3.1,-3.7,29.47,NE,42,0.0,0.0,97,0.00,,,0.00,VWS V14.01,2013-02-07 05:03:00,
2013-02-07 00:08:00,-3.1,-3.7,29.47,North,0,0.0,0.0,97,0.00,,,0.00,VWS V14.01,2013-02-07 05:08:00,
2013-02-07 00:14:00,-3.1,-3.7,29.44,NE,44,0.0,0.0,97,0.00,,,0.00,VWS V14.01,2013-02-07 05:14:00,
2013-02-07 00:19:00,-3.1,-3.7,29.44,NE,44,0.0,0.0,97,0.00,,,0.00,VWS V14.01,2013-02-07 05:19:00,
2013-02-07 00:25:00,-3.1,-3.7,29.44,NE,44,0.0,0.0,97,0.00,,,0.00,VWS V14.01,2013-02-07 05:25:00,
2013-02-07 00:30:00,-3.1,-3.7,29.44,NE,44,0.0,0.0,97,0.00,,,0.00,VWS V14.01,2013-02-07 05:30:00,
2013-02-07 00:36:00,-3.1,-3.7,29.44,NE,44,0.0,0.0,97,0.00,,,0.00,VWS V14.01,2013-02-07 05:36:00,
2013-02-07 00:42:00,-3.1,-3.7,29.44,North,0,0.0,0.0,97,0.00,,,0.00,VWS V14.01,2013-02-07 05:42:00,
2013-02-07 00:47:00,-3.1,-3.7,29.44,North,0,0.0,0.0,97,0.00,,,0.00,VWS V14.01,2013-02-07 05:47:00,
2013-02-07 00:53:00,-3.1,-3.7,29.44,North,0,0.0,0.0,97,0.00,,,0.00,VWS V14.01,2013-02-07 05:53:00,
2013-02-07 00:58:00,-3.1,-3.7,29.44,North,0,0.0,0.0,97,0.00,,,0.00,VWS V14.01,2013-02-07 05:58:00,
2013-02-07 01:04:00,-3.1,-3.7,29.44,NE,44,0.0,0.0,97,0.00,,,0.00,VWS V14.01,2013-02-07 06:04:00,
2013-02-07 01:09:00,-3.1,-3.7,29.44,NE,44,0.0,0.0,97,0.00,,,0.00,VWS V14.01,2013-02-07 06:09:00,
2013-02-07 01:15:00,-3.1,-3.7,29.47,NE,44,0.0,0.0,97,0.00,,,0.00,VWS V14.01,2013-02-07 06:15:00,
2013-02-07 01:20:00,-3.1,-3.7,29.47,NE,44,0.0,2.7,97,0.00,,,0.00,VWS V14.01,2013-02-07 06:20:00,
2013-02-07 01:26:00,-3.1,-3.7,29.47,NE,44,0.0,3.1,97,0.00,,,0.00,VWS V14.01,2013-02-07 06:26:00,
2013-02-07 01:31:00,-3.1,-3.7,29.47,NE,43,3.1,3.1,97,0.00,,,0.00,VWS V14.01,2013-02-07 06:31:00,
2013-02-07 01:37:00,-3.1,-3.7,29.47,NE,43,0.0,0.0,97,0.00,,,0.00,VWS V14.01,2013-02-07 06:37:00,
2013-02-07 01:43:00,-3.1,-3.7,29.47,NE,44,0.0,0.0,97,0.00,,,0.00,VWS V14.01,2013-02-07 06:43:00,
2013-02-07 01:48:00,-3.1,-3.7,29.47,NE,44,0.0,0.0,97,0.00,,,0.00,VWS V14.01,2013-02-07 06:48:00,
2013-02-07 01:53:00,-3.1,-3.7,29.47,NE,44,0.0,0.0,97,0.00,,,0.00,VWS V14.01,2013-02-07 06:53:00,
2013-02-07 01:59:00,-3.1,-3.7,29.50,NE,44,0.0,0.0,97,0.00,,,0.00,VWS V14.01,2013-02-07 06:59:00,
2013-02-07 02:05:00,-3.1,-3.7,29.50,NE,43,0.0,0.0,97,0.00,,,0.00,VWS V14.01,2013-02-07 07:05:00,
2013-02-07 02:10:00,-3.1,-3.7,29.50,NE,44,0.0,0.0,97,0.00,,,0.00,VWS V14.01,2013-02-07 07:10:00,
2013-02-07 02:16:00,-3.1,-3.7,29.50,NE,44,0.0,0.0,97,0.00,,,0.00,VWS V14.01,2013-02-07 07:16:00,
2013-02-07 02:21:00,-3.1,-3.7,29.50,NE,44,0.0,0.0,97,0.00,,,0.00,VWS V14.01,2013-02-07 07:21:00,
2013-02-07 02:27:00,-3.1,-3.7,29.50,NE,44,0.0,0.0,97,0.00,,,0.00,VWS V14.01,2013-02-07 07:27:00,
2013-02-07 02:33:00,-3.1,-3.7,29.50,NE,44,0.0,0.0,97,0.00,,,0.00,VWS V14.01,2013-02-07 07:33:00,
2013-02-07 02:38:00,-3.1,-3.7,29.50,NE,43,0.0,0.0,97,0.00,,,0.00,VWS V14.01,2013-02-07 07:38:00,
2013-02-07 02:44:00,-3.1,-3.7,29.50,NE,44,0.0,0.0,97,0.00,,,0.00,VWS V14.01,2013-02-07 07:44:00,
2013-02-07 02:49:00,-3.1,-3.7,29.50,NE,44,0.0,0.0,97,0.00,,,0.00,VWS V14.01,2013-02-07 07:49:00,
2013-02-07 02:55:00,-3.1,-3.7,29.50,NE,43,0.0,0.0,97,0.00,,,0.00,VWS V14.01,2013-02-07 07:55:00,
2013-02-07 03:00:00,-3.1,-3.7,29.50,NE,44,0.0,0.0,97,0.00,,,0.00,VWS V14.01,2013-02-07 08:00:00,
2013-02-07 03:06:00,-3.1,-3.7,29.50,NE,44,0.0,0.0,97,0.00,,,0.00,VWS V14.01,2013-02-07 08:06:00,
2013-02-07 03:11:00,-3.1,-3.7,29.50,NE,43,0.0,0.0,97,0.00,,,0.00,VWS V14.01,2013-02-07 08:11:00,
2013-02-07 03:17:00,-3.1,-3.7,29.50,NE,43,3.1,3.6,97,0.00,,,0.00,VWS V14.01,2013-02-07 08:17:00,
2013-02-07 03:23:00,-3.1,-3.7,29.50,NE,44,3.1,3.6,97,0.00,,,0.00,VWS V14.01,2013-02-07 08:23:00,
2013-02-07 03:28:00,-3.1,-3.7,29.50,NE,43,0.0,0.0,97,0.00,,,0.00,VWS V14.01,2013-02-07 08:28:00,
2013-02-07 03:34:00,-3.1,-3.7,29.50,NE,44,0.0,0.0,97,0.00,,,0.00,VWS V14.01,2013-02-07 08:34:00,
2013-02-07 03:39:00,-3.1,-3.7,29.50,NE,44,0.0,0.0,97,0.00,,,0.00,VWS V14.01,2013-02-07 08:39:00,
2013-02-07 03:45:00,-3.1,-3.7,29.50,NE,44,0.0,0.0,97,0.00,,,0.00,VWS V14.01,2013-02-07 08:45:00,
2013-02-07 03:50:00,-3.1,-3.7,29.50,NE,44,0.0,0.0,97,0.00,,,0.00,VWS V14.01,2013-02-07 08:50:00,
2013-02-07 03:56:00,-3.1,-3.7,29.50,NE,45,0.0,0.0,97,0.00,,,0.00,VWS V14.01,2013-02-07 08:56:00,
2013-02-07 04:01:00,-3.1,-3.7,29.53,NE,44,0.0,0.0,97,0.00,,,0.00,VWS V14.01,2013-02-07 09:01:00,
2013-02-07 04:07:00,-3.1,-3.7,29.53,NE,45,0.0,0.0,97,0.00,,,0.00,VWS V14.01,2013-02-07 09:07:00,
2013-02-07 04:13:00,-3.1,-3.7,29.53,NE,44,0.0,0.0,97,0.00,,,0.00,VWS V14.01,2013-02-07 09:13:00,
2013-02-07 04:18:00,-3.1,-3.7,29.53,NE,44,0.0,0.0,97,0.00,,,0.00,VWS V14.01,2013-02-07 09:18:00,
2013-02-07 04:24:00,-3.1,-3.7,29.53,NE,44,0.0,0.0,97,0.00,,,0.00,VWS V14.01,2013-02-07 09:24:00,
2013-02-07 04:29:00,-3.1,-3.7,29.53,NE,45,0.0,0.0,97,0.00,,,0.00,VWS V14.01,2013-02-07 09:29:00,
2013-02-07 04:35:00,-3.1,-3.7,29.53,NE,44,0.0,0.0,97,0.00,,,0.00,VWS V14.01,2013-02-07 09:35:00,
2013-02-07 04:40:00,-3.1,-3.7,29.53,NE,44,0.0,0.0,97,0.00,,,0.00,VWS V14.01,2013-02-07 09:40:00,
2013-02-07 04:46:00,-3.1,-3.7,29.53,NE,44,0.0,0.0,97,0.00,,,0.00,VWS V14.01,2013-02-07 09:46:00,
2013-02-07 04:51:00,-3.1,-3.7,29.53,NE,44,0.0,0.0,97,0.00,,,0.00,VWS V14.01,2013-02-07 09:51:00,
2013-02-07 04:57:00,-3.1,-3.7,29.53,NE,44,0.0,0.0,97,0.00,,,0.00,VWS V14.01,2013-02-07 09:57:00,
2013-02-07 05:03:00,-3.1,-3.7,29.53,NE,44,0.0,0.0,97,0.00,,,0.00,VWS V14.01,2013-02-07 10:03:00,
2013-02-07 05:08:00,-3.1,-3.7,29.53,NE,44,0.0,0.0,97,0.00,,,0.00,VWS V14.01,2013-02-07 10:08:00,
2013-02-07 05:14:00,-3.1,-3.7,29.53,NE,44,0.0,0.0,97,0.00,,,0.00,VWS V14.01,2013-02-07 10:14:00,
2013-02-07 05:19:00,-3.1,-3.7,29.53,NE,45,0.0,0.0,97,0.00,,,0.00,VWS V14.01,2013-02-07 10:19:00,
2013-02-07 05:24:00,-3.1,-3.7,29.53,NE,45,0.0,0.0,97,0.00,,,0.00,VWS V14.01,2013-02-07 10:24:00,
2013-02-07 05:29:00,-3.1,-3.7,29.53,NE,44,0.0,0.0,97,0.00,,,0.00,VWS V14.01,2013-02-07 10:29:00,
2013-02-07 05:35:00,-3.1,-3.7,29.53,NE,44,0.0,0.0,97,0.00,,,0.00,VWS V14.01,2013-02-07 10:35:00,
2013-02-07 05:40:00,-3.1,-3.7,29.53,NE,44,0.0,0.0,97,0.00,,,0.00,VWS V14.01,2013-02-07 10:40:00,
2013-02-07 05:46:00,-3.1,-3.7,29.53,NE,44,0.0,0.0,97,0.00,,,0.00,VWS V14.01,2013-02-07 10:46:00,
2013-02-07 05:51:00,-3.1,-3.7,29.53,NE,44,0.0,0.0,97,0.00,,,0.00,VWS V14.01,2013-02-07 10:51:00,
2013-02-07 05:57:00,-3.1,-3.7,29.53,NE,44,3.1,3.6,97,0.00,,,0.00,VWS V14.01,2013-02-07 10:57:00,
2013-02-07 06:03:00,-3.1,-3.7,29.53,NE,43,0.0,0.0,97,0.00,,,0.00,VWS V14.01,2013-02-07 11:03:00,
2013-02-07 06:08:00,-3.1,-3.7,29.53,NE,44,0.0,0.0,97,0.00,,,0.00,VWS V14.01,2013-02-07 11:08:00,
2013-02-07 06:14:00,-3.1,-3.7,29.56,NE,45,0.0,0.0,97,0.00,,,0.00,VWS V14.01,2013-02-07 11:14:00,
2013-02-07 06:19:00,-3.1,-3.7,29.56,NE,45,0.0,0.0,97,0.00,,,0.00,VWS V14.01,2013-02-07 11:19:00,
2013-02-07 06:25:00,-3.1,-3.7,29.56,NE,44,0.0,0.0,97,0.00,,,0.00,VWS V14.01,2013-02-07 11:25:00,
2013-02-07 06:30:00,-3.1,-3.7,29.56,North,0,0.0,0.0,97,0.00,,,0.00,VWS V14.01,2013-02-07 11:30:00,
2013-02-07 06:36:00,-3.1,-3.7,29.56,North,0,0.0,0.0,97,0.00,,,0.00,VWS V14.01,2013-02-07 11:36:00,
2013-02-07 06:41:00,-3.1,-3.7,29.56,North,0,0.0,0.0,97,0.00,,,0.00,VWS V14.01,2013-02-07 11:41:00,
2013-02-07 06:47:00,-3.1,-3.7,29.56,North,0,0.0,0.0,97,0.00,,,0.00,VWS V14.01,2013-02-07 11:47:00,
2013-02-07 06:53:00,-3.1,-3.7,29.56,North,0,0.0,0.0,97,0.00,,,0.00,VWS V14.01,2013-02-07 11:53:00,
2013-02-07 06:58:00,-3.1,-3.7,29.56,North,5,4.0,4.0,97,0.00,,,0.00,VWS V14.01,2013-02-07 11:58:00,
2013-02-07 07:04:00,-3.1,-3.7,29.56,North,4,0.0,2.7,97,0.00,,,0.00,VWS V14.01,2013-02-07 12:04:00,
2013-02-07 07:09:00,-3.1,-3.7,29.56,North,2,0.0,0.0,97,0.00,,,0.00,VWS V14.01,2013-02-07 12:09:00,
2013-02-07 07:15:00,-3.1,-3.7,29.56,North,0,2.7,4.0,97,0.00,,,0.00,VWS V14.01,2013-02-07 12:15:00,
2013-02-07 07:20:00,-3.1,-3.7,29.56,North,0,0.0,2.7,97,0.00,,,0.00,VWS V14.01,2013-02-07 12:20:00,
2013-02-07 07:26:00,-3.1,-3.7,29.56,North,0,0.0,0.0,97,0.00,,,0.00,VWS V14.01,2013-02-07 12:26:00,
2013-02-07 07:31:00,-3.1,-3.7,29.56,North,0,0.0,0.0,97,0.00,,,0.00,VWS V14.01,2013-02-07 12:31:00,
2013-02-07 07:37:00,-3.1,-3.7,29.56,North,0,0.0,0.0,97,0.00,,,0.00,VWS V14.01,2013-02-07 12:37:00,
2013-02-07 07:42:00,-3.1,-3.7,29.56,North,0,0.0,0.0,97,0.00,,,0.00,VWS V14.01,2013-02-07 12:42:00,
2013-02-07 07:48:00,-3.1,-3.7,29.59,North,0,0.0,0.0,97,0.00,,,0.00,VWS V14.01,2013-02-07 12:48:00,
2013-02-07 07:54:00,-3.1,-3.7,29.59,North,2,0.0,0.0,97,0.00,,,0.00,VWS V14.01,2013-02-07 12:54:00,
2013-02-07 07:59:00,-3.1,-3.7,29.59,North,2,0.0,0.0,97,0.00,,,0.00,VWS V14.01,2013-02-07 12:59:00,
2013-02-07 08:05:00,-3.1,-3.7,29.59,North,2,0.0,0.0,97,0.00,,,0.00,VWS V14.01,2013-02-07 13:05:00,
2013-02-07 08:10:00,-3.1,-3.7,29.59,North,2,0.0,0.0,97,0.00,,,0.00,VWS V14.01,2013-02-07 13:10:00,
2013-02-07 08:16:00,-3.1,-3.7,29.59,North,2,0.0,0.0,97,0.00,,,0.00,VWS V14.01,2013-02-07 13:16:00,
2013-02-07 08:21:00,-3.1,-3.7,29.59,North,2,0.0,0.0,97,0.00,,,0.00,VWS V14.01,2013-02-07 13:21:00,
2013-02-07 08:27:00,-3.1,-3.7,29.59,North,2,0.0,0.0,97,0.00,,,0.00,VWS V14.01,2013-02-07 13:27:00,
2013-02-07 08:33:00,-3.1,-3.7,29.59,North,2,0.0,0.0,97,0.00,,,0.00,VWS V14.01,2013-02-07 13:33:00,
2013-02-07 08:38:00,-3.1,-3.7,29.59,North,4,0.0,0.0,97,0.00,,,0.00,VWS V14.01,2013-02-07 13:38:00,
2013-02-07 08:44:00,-3.1,-3.7,29.59,North,3,0.0,0.0,97,0.00,,,0.00,VWS V14.01,2013-02-07 13:44:00,
2013-02-07 08:49:00,-3.1,-3.7,29.59,North,1,0.0,0.0,97,0.00,,,0.00,VWS V14.01,2013-02-07 13:49:00,
2013-02-07 08:54:00,-3.1,-3.7,29.59,North,1,0.0,0.0,97,0.00,,,0.00,VWS V14.01,2013-02-07 13:54:00,
2013-02-07 09:00:00,-3.1,-3.7,29.62,North,1,0.0,0.0,97,0.00,,,0.00,VWS V14.01,2013-02-07 14:00:00,
2013-02-07 09:06:00,-3.1,-3.7,29.62,North,0,0.0,0.0,97,0.00,,,0.00,VWS V14.01,2013-02-07 14:06:00,
2013-02-07 09:11:00,-3.1,-3.7,29.62,North,1,0.0,0.0,97,0.00,,,0.00,VWS V14.01,2013-02-07 14:11:00,
2013-02-07 09:17:00,-3.1,-3.7,29.62,North,2,0.0,0.0,97,0.00,,,0.00,VWS V14.01,2013-02-07 14:17:00,
2013-02-07 09:23:00,-3.1,-3.7,29.62,North,2,0.0,0.0,97,0.00,,,0.00,VWS V14.01,2013-02-07 14:23:00,
2013-02-07 09:28:00,-3.1,-3.7,29.62,North,2,0.0,0.0,97,0.00,,,0.00,VWS V14.01,2013-02-07 14:28:00,
2013-02-07 09:34:00,-3.1,-3.7,29.62,North,1,0.0,0.0,97,0.00,,,0.00,VWS V14.01,2013-02-07 14:34:00,
2013-02-07 09:39:00,-3.1,-3.7,29.62,North,1,0.0,0.0,97,0.00,,,0.00,VWS V14.01,2013-02-07 14:39:00,
2013-02-07 09:45:00,-3.1,-3.7,29.62,North,2,0.0,0.0,97,0.00,,,0.00,VWS V14.01,2013-02-07 14:45:00,
2013-02-07 09:50:00,-3.1,-3.7,29.62,North,3,0.0,0.0,97,0.00,,,0.00,VWS V14.01,2013-02-07 14:50:00,
2013-02-07 09:56:00,-3.1,-3.7,29.62,North,1,0.0,0.0,97,0.00,,,0.00,VWS V14.01,2013-02-07 14:56:00,
2013-02-07 10:02:00,-3.1,-3.7,29.62,North,5,0.0,0.0,97,0.00,,,0.00,VWS V14.01,2013-02-07 15:02:00,
2013-02-07 10:07:00,-3.1,-3.7,29.62,North,6,0.0,0.0,97,0.00,,,0.00,VWS V14.01,2013-02-07 15:07:00,
2013-02-07 10:13:00,-3.1,-3.7,29.62,North,2,0.0,0.0,97,0.00,,,0.00,VWS V14.01,2013-02-07 15:13:00,
2013-02-07 10:18:00,-3.1,-3.7,29.62,North,4,0.0,0.0,97,0.00,,,0.00,VWS V14.01,2013-02-07 15:18:00,
2013-02-07 10:24:00,-3.1,-3.7,29.62,North,3,0.0,0.0,97,0.00,,,0.00,VWS V14.01,2013-02-07 15:24:00,
2013-02-07 10:29:00,-3.1,-3.7,29.62,North,3,0.0,0.0,97,0.00,,,0.00,VWS V14.01,2013-02-07 15:29:00,
2013-02-07 10:35:00,-3.1,-3.7,29.62,North,3,0.0,0.0,97,0.00,,,0.00,VWS V14.01,2013-02-07 15:35:00,
2013-02-07 10:40:00,-3.1,-3.7,29.62,North,3,0.0,0.0,97,0.00,,,0.00,VWS V14.01,2013-02-07 15:40:00,
2013-02-07 10:46:00,-3.1,-3.7,29.62,North,2,0.0,0.0,97,0.00,,,0.00,VWS V14.01,2013-02-07 15:46:00,
2013-02-07 10:51:00,-3.1,-3.7,29.62,North,7,0.0,0.0,97,0.00,,,0.00,VWS V14.01,2013-02-07 15:51:00,
2013-02-07 10:57:00,-3.1,-3.7,29.62,North,5,0.0,0.0,97,0.00,,,0.00,VWS V14.01,2013-02-07 15:57:00,
2013-02-07 11:03:00,-3.1,-3.7,29.62,North,2,0.0,0.0,97,0.00,,,0.00,VWS V14.01,2013-02-07 16:03:00,
2013-02-07 11:08:00,-3.1,-3.7,29.62,North,8,0.0,0.0,97,0.00,,,0.00,VWS V14.01,2013-02-07 16:08:00,
2013-02-07 11:14:00,-3.1,-3.7,29.62,North,5,0.0,0.0,97,0.00,,,0.00,VWS V14.01,2013-02-07 16:14:00,
2013-02-07 11:19:00,-3.1,-3.7,29.62,North,3,0.0,0.0,97,0.00,,,0.00,VWS V14.01,2013-02-07 16:19:00,
2013-02-07 11:25:00,-3.1,-3.7,29.62,North,7,0.0,0.0,97,0.00,,,0.00,VWS V14.01,2013-02-07 16:25:00,
2013-02-07 11:30:00,-3.1,-3.7,29.59,North,0,0.0,0.0,97,0.00,,,0.00,VWS V14.01,2013-02-07 16:30:00,
2013-02-07 11:36:00,-3.1,-3.7,29.59,NE,45,0.0,0.0,97,0.00,,,0.00,VWS V14.01,2013-02-07 16:36:00,
2013-02-07 11:41:00,-3.1,-3.7,29.59,NNE,16,0.0,0.0,97,0.00,,,0.00,VWS V14.01,2013-02-07 16:41:00,
2013-02-07 11:47:00,-3.1,-3.7,29.59,North,11,0.0,0.0,97,0.00,,,0.00,VWS V14.01,2013-02-07 16:47:00,
2013-02-07 11:53:00,-3.1,-3.7,29.59,North,6,0.0,0.0,97,0.00,,,0.00,VWS V14.01,2013-02-07 16:53:00,
2013-02-07 11:58:00,-3.1,-3.7,29.59,North,8,0.0,0.0,97,0.00,,,0.00,VWS V14.01,2013-02-07 16:58:00,
2013-02-07 12:04:00,-3.1,-3.7,29.59,North,7,0.0,0.0,97,0.00,,,0.00,VWS V14.01,2013-02-07 17:04:00,
2013-02-07 12:09:00,-3.1,-3.7,29.59,North,1,0.0,0.0,97,0.00,,,0.00,VWS V14.01,2013-02-07 17:09:00,
2013-02-07 12:15:00,-3.1,-3.7,29.59,North,8,0.0,0.0,97,0.00,,,0.00,VWS V14.01,2013-02-07 17:15:00,
2013-02-07 12:20:00,-3.1,-3.7,29.59,North,7,0.0,0.0,97,0.00,,,0.00,VWS V14.01,2013-02-07 17:20:00,
2013-02-07 12:26:00,-3.1,-3.7,29.59,North,5,0.0,0.0,97,0.00,,,0.00,VWS V14.01,2013-02-07 17:26:00,
2013-02-07 12:31:00,-3.1,-3.7,29.59,North,9,0.0,0.0,97,0.00,,,0.00,VWS V14.01,2013-02-07 17:31:00,
2013-02-07 12:37:00,-3.1,-3.7,29.59,North,9,0.0,0.0,97,0.00,,,0.00,VWS V14.01,2013-02-07 17:37:00,
2013-02-07 12:43:00,-3.1,-3.7,29.59,North,8,0.0,0.0,97,0.00,,,0.00,VWS V14.01,2013-02-07 17:43:00,
2013-02-07 12:48:00,-3.1,-3.7,29.59,North,8,0.0,0.0,97,0.00,,,0.00,VWS V14.01,2013-02-07 17:48:00,
2013-02-07 12:54:00,-3.1,-3.7,29.59,North,8,0.0,0.0,97,0.00,,,0.00,VWS V14.01,2013-02-07 17:54:00,
2013-02-07 12:59:00,-3.1,-3.7,29.56,North,6,0.0,0.0,97,0.00,,,0.00,VWS V14.01,2013-02-07 17:59:00,
2013-02-07 13:05:00,-3.1,-3.7,29.56,North,5,0.0,0.0,97,0.00,,,0.00,VWS V14.01,2013-02-07 18:05:00,
2013-02-07 13:10:00,-3.1,-3.7,29.56,NNE,17,0.0,0.0,97,0.00,,,0.00,VWS V14.01,2013-02-07 18:10:00,
2013-02-07 13:17:00,-3.1,-3.7,29.56,NNE,15,0.0,0.0,97,0.00,,,0.00,VWS V14.01,2013-02-07 18:17:00,
2013-02-07 13:23:00,-3.1,-3.7,29.56,North,0,0.0,0.0,97,0.00,,,0.00,VWS V14.01,2013-02-07 18:23:00,
2013-02-07 13:28:00,-3.1,-3.7,29.56,North,0,0.0,0.0,97,0.00,,,0.00,VWS V14.01,2013-02-07 18:28:00,
2013-02-07 13:34:00,-3.1,-3.7,29.56,NNE,13,0.0,0.0,97,0.00,,,0.00,VWS V14.01,2013-02-07 18:34:00,
2013-02-07 13:39:00,-3.1,-3.7,29.56,North,7,0.0,0.0,97,0.00,,,0.00,VWS V14.01,2013-02-07 18:39:00,
2013-02-07 13:45:00,-3.1,-3.7,29.56,NNE,12,0.0,0.0,97,0.00,,,0.00,VWS V14.01,2013-02-07 18:45:00,
2013-02-07 13:50:00,-3.1,-3.7,29.56,North,0,0.0,0.0,97,0.00,,,0.00,VWS V14.01,2013-02-07 18:50:00,
2013-02-07 13:56:00,-3.1,-3.7,29.56,NNE,16,0.0,0.0,97,0.00,,,0.00,VWS V14.01,2013-02-07 18:56:00,
2013-02-07 14:01:00,-3.1,-3.7,29.56,NNE,13,0.0,0.0,97,0.00,,,0.00,VWS V14.01,2013-02-07 19:01:00,
2013-02-07 14:07:00,-3.1,-3.7,29.56,North,9,0.0,0.0,97,0.00,,,0.00,VWS V14.01,2013-02-07 19:07:00,
2013-02-07 14:13:00,-3.1,-3.7,29.56,North,10,0.0,0.0,97,0.00,,,0.00,VWS V14.01,2013-02-07 19:13:00,
2013-02-07 14:18:00,-3.1,-3.7,29.56,NNE,15,0.0,0.0,97,0.00,,,0.00,VWS V14.01,2013-02-07 19:18:00,
2013-02-07 14:24:00,-3.1,-3.7,29.56,NNE,29,0.0,0.0,97,0.00,,,0.00,VWS V14.01,2013-02-07 19:24:00,
2013-02-07 14:29:00,-3.1,-3.7,29.56,NNE,17,0.0,0.0,97,0.00,,,0.00,VWS V14.01,2013-02-07 19:29:00,
2013-02-07 14:35:00,-3.1,-3.7,29.56,NNE,18,0.0,0.0,97,0.00,,,0.00,VWS V14.01,2013-02-07 19:35:00,
2013-02-07 14:40:00,-3.1,-3.7,29.56,NNE,30,0.0,0.0,97,0.00,,,0.00,VWS V14.01,2013-02-07 19:40:00,
2013-02-07 14:46:00,-3.1,-3.7,29.56,NNE,19,0.0,0.0,97,0.00,,,0.00,VWS V14.01,2013-02-07 19:46:00,
2013-02-07 14:51:00,-3.1,-3.7,29.56,NNE,15,0.0,0.0,97,0.00,,,0.00,VWS V14.01,2013-02-07 19:51:00,
2013-02-07 14:57:00,-3.1,-3.7,29.56,NNE,19,0.0,0.0,97,0.00,,,0.00,VWS V14.01,2013-02-07 19:57:00,
2013-02-07 15:03:00,-3.1,-3.7,29.56,NNE,17,0.0,0.0,97,0.00,,,0.00,VWS V14.01,2013-02-07 20:03:00,
2013-02-07 15:08:00,-3.1,-3.7,29.56,NNE,19,0.0,0.0,97,0.00,,,0.00,VWS V14.01,2013-02-07 20:08:00,
2013-02-07 15:14:00,-3.1,-3.7,29.56,NNE,16,0.0,0.0,97,0.00,,,0.00,VWS V14.01,2013-02-07 20:14:00,
2013-02-07 15:19:00,-3.1,-3.7,29.56,NNE,12,0.0,0.0,97,0.00,,,0.00,VWS V14.01,2013-02-07 20:19:00,
2013-02-07 15:25:00,-3.1,-3.7,29.56,NNE,24,0.0,0.0,97,0.00,,,0.00,VWS V14.01,2013-02-07 20:25:00,
2013-02-07 15:30:00,-3.1,-3.7,29.56,NNE,20,0.0,0.0,97,0.00,,,0.00,VWS V14.01,2013-02-07 20:30:00,
2013-02-07 15:36:00,-3.1,-3.7,29.56,NNE,18,0.0,0.0,97,0.00,,,0.00,VWS V14.01,2013-02-07 20:36:00,
2013-02-07 15:41:00,-3.1,-3.7,29.56,NNE,17,0.0,0.0,97,0.00,,,0.00,VWS V14.01,2013-02-07 20:41:00,
2013-02-07 15:47:00,-3.1,-3.7,29.53,NNE,14,0.0,0.0,97,0.00,,,0.00,VWS V14.01,2013-02-07 20:47:00,
2013-02-07 15:53:00,-3.1,-3.7,29.53,NNE,15,0.0,0.0,97,0.00,,,0.00,VWS V14.01,2013-02-07 20:53:00,
2013-02-07 15:58:00,-3.1,-3.7,29.53,NNE,12,0.0,0.0,97,0.00,,,0.00,VWS V14.01,2013-02-07 20:58:00,
2013-02-07 16:04:00,-3.1,-3.7,29.53,NNE,18,0.0,0.0,97,0.00,,,0.00,VWS V14.01,2013-02-07 21:04:00,
2013-02-07 16:09:00,-3.1,-3.7,29.53,NNE,12,0.0,0.0,97,0.00,,,0.00,VWS V14.01,2013-02-07 21:09:00,
2013-02-07 16:15:00,-3.1,-3.7,29.53,NNE,14,0.0,0.0,97,0.00,,,0.00,VWS V14.01,2013-02-07 21:15:00,
2013-02-07 16:20:00,-3.1,-3.7,29.53,North,11,0.0,0.0,97,0.00,,,0.00,VWS V14.01,2013-02-07 21:20:00,
2013-02-07 16:26:00,-3.1,-3.7,29.53,NNE,21,0.0,0.0,97,0.00,,,0.00,VWS V14.01,2013-02-07 21:26:00,
2013-02-07 16:31:00,-3.1,-3.7,29.53,North,11,0.0,0.0,97,0.00,,,0.00,VWS V14.01,2013-02-07 21:31:00,
2013-02-07 16:37:00,-3.1,-3.7,29.53,NNE,21,0.0,0.0,97,0.00,,,0.00,VWS V14.01,2013-02-07 21:37:00,
2013-02-07 16:43:00,-3.1,-3.7,29.53,North,11,0.0,0.0,97,0.00,,,0.00,VWS V14.01,2013-02-07 21:43:00,
2013-02-07 16:48:00,-3.1,-3.7,29.53,NNE,23,0.0,0.0,97,0.00,,,0.00,VWS V14.01,2013-02-07 21:48:00,
2013-02-07 16:54:00,-3.1,-3.7,29.53,NNE,21,0.0,0.0,97,0.00,,,0.00,VWS V14.01,2013-02-07 21:54:00,
2013-02-07 16:59:00,-3.1,-3.7,29.53,NNE,20,0.0,0.0,97,0.00,,,0.00,VWS V14.01,2013-02-07 21:59:00,
2013-02-07 17:05:00,-3.1,-3.7,29.53,North,10,0.0,0.0,97,0.00,,,0.00,VWS V14.01,2013-02-07 22:05:00,
2013-02-07 17:10:00,-3.1,-3.7,29.53,North,11,0.0,0.0,97,0.00,,,0.00,VWS V14.01,2013-02-07 22:10:00,
2013-02-07 17:16:00,-3.1,-3.7,29.53,NNE,12,0.0,0.0,97,0.00,,,0.00,VWS V14.01,2013-02-07 22:16:00,
2013-02-07 17:21:00,-3.1,-3.7,29.53,NNE,13,0.0,0.0,97,0.00,,,0.00,VWS V14.01,2013-02-07 22:21:00,
2013-02-07 17:27:00,-3.1,-3.7,29.53,NNE,17,0.0,0.0,97,0.00,,,0.00,VWS V14.01,2013-02-07 22:27:00,
2013-02-07 17:33:00,-3.1,-3.7,29.53,NNE,23,0.0,0.0,97,0.00,,,0.00,VWS V14.01,2013-02-07 22:33:00,
2013-02-07 17:38:00,-3.1,-3.7,29.53,NNE,24,0.0,0.0,97,0.00,,,0.00,VWS V14.01,2013-02-07 22:38:00,
2013-02-07 17:44:00,-3.1,-3.7,29.53,NNE,19,0.0,0.0,97,0.00,,,0.00,VWS V14.01,2013-02-07 22:44:00,
2013-02-07 17:49:00,-3.1,-3.7,29.53,NNE,19,0.0,0.0,97,0.00,,,0.00,VWS V14.01,2013-02-07 22:49:00,
2013-02-07 17:55:00,-3.1,-3.7,29.53,NNE,21,0.0,0.0,97,0.00,,,0.00,VWS V14.01,2013-02-07 22:55:00,
2013-02-07 18:00:00,-3.1,-3.7,29.53,NNE,21,0.0,0.0,97,0.00,,,0.00,VWS V14.01,2013-02-07 23:00:00,
2013-02-07 18:06:00,-3.1,-3.7,29.53,NNE,21,0.0,0.0,97,0.00,,,0.00,VWS V14.01,2013-02-07 23:06:00,
2013-02-07 18:11:00,-3.1,-3.7,29.53,NNE,19,0.0,0.0,97,0.00,,,0.00,VWS V14.01,2013-02-07 23:11:00,
2013-02-07 18:17:00,-3.1,-3.7,29.53,NNE,19,0.0,0.0,97,0.00,,,0.00,VWS V14.01,2013-02-07 23:17:00,
2013-02-07 18:23:00,-3.1,-3.7,29.53,NNE,14,0.0,0.0,97,0.00,,,0.00,VWS V14.01,2013-02-07 23:23:00,
2013-02-07 18:28:00,-3.1,-3.7,29.53,NNE,20,0.0,0.0,97,0.00,,,0.00,VWS V14.01,2013-02-07 23:28:00,
2013-02-07 18:34:00,-3.1,-3.7,29.53,NNE,18,0.0,0.0,97,0.00,,,0.00,VWS V14.01,2013-02-07 23:34:00,
2013-02-07 18:39:00,-3.1,-3.7,29.53,NNE,18,0.0,0.0,97,0.00,,,0.00,VWS V14.01,2013-02-07 23:39:00,
2013-02-07 18:45:00,-3.1,-3.7,29.53,NNE,25,0.0,0.0,97,0.00,,,0.00,VWS V14.01,2013-02-07 23:45:00,
2013-02-07 18:50:00,-3.1,-3.7,29.53,NNE,19,0.0,0.0,97,0.00,,,0.00,VWS V14.01,2013-02-07 23:50:00,
2013-02-07 18:55:00,-3.1,-3.7,29.53,NNE,19,0.0,0.0,97,0.00,,,0.00,VWS V14.01,2013-02-07 23:55:00,
2013-02-07 19:00:00,-3.1,-3.7,29.53,NNE,22,0.0,0.0,97,0.00,,,0.00,VWS V14.01,2013-02-08 00:00:00,
2013-02-07 19:06:00,-3.1,-3.7,29.53,NNE,24,0.0,0.0,97,0.00,,,0.00,VWS V14.01,2013-02-08 00:06:00,
2013-02-07 19:11:00,-3.1,-3.7,29.53,NNE,24,0.0,0.0,97,0.00,,,0.00,VWS V14.01,2013-02-08 00:11:00,
2013-02-07 19:17:00,-3.1,-3.7,29.53,NNE,20,0.0,0.0,97,0.00,,,0.00,VWS V14.01,2013-02-08 00:17:00,
2013-02-07 19:23:00,-3.1,-3.7,29.53,NNE,18,0.0,0.0,97,0.00,,,0.00,VWS V14.01,2013-02-08 00:23:00,
2013-02-07 19:28:00,-3.1,-3.7,29.53,NNE,20,0.0,0.0,97,0.00,,,0.00,VWS V14.01,2013-02-08 00:28:00,
2013-02-07 19:34:00,-3.1,-3.7,29.53,NNE,19,0.0,0.0,97,0.00,,,0.00,VWS V14.01,2013-02-08 00:34:00,
2013-02-07 19:39:00,-3.1,-3.7,29.53,NNE,18,0.0,0.0,97,0.00,,,0.00,VWS V14.01,2013-02-08 00:39:00,
2013-02-07 19:45:00,-3.1,-3.7,29.53,NNE,20,0.0,0.0,97,0.00,,,0.00,VWS V14.01,2013-02-08 00:45:00,
2013-02-07 19:50:00,-3.1,-3.7,29.53,NNE,23,0.0,0.0,97,0.00,,,0.00,VWS V14.01,2013-02-08 00:50:00,
2013-02-07 19:56:00,-3.1,-3.7,29.53,NNE,25,0.0,0.0,97,0.00,,,0.00,VWS V14.01,2013-02-08 00:56:00,
2013-02-07 20:01:00,-3.1,-3.7,29.53,NNE,20,0.0,0.0,97,0.00,,,0.00,VWS V14.01,2013-02-08 01:01:00,
2013-02-07 20:07:00,-3.1,-3.7,29.53,NNE,20,0.0,0.0,97,0.00,,,0.00,VWS V14.01,2013-02-08 01:07:00,
2013-02-07 20:13:00,-3.1,-3.7,29.53,NNE,21,0.0,0.0,97,0.00,,,0.00,VWS V14.01,2013-02-08 01:13:00,
2013-02-07 20:18:00,-3.1,-3.7,29.53,NNE,16,0.0,0.0,97,0.00,,,0.00,VWS V14.01,2013-02-08 01:18:00,
2013-02-07 20:24:00,-3.1,-3.7,29.53,NNE,20,0.0,0.0,97,0.00,,,0.00,VWS V14.01,2013-02-08 01:24:00,
2013-02-07 20:29:00,-3.1,-3.7,29.53,NNE,21,0.0,0.0,97,0.00,,,0.00,VWS V14.01,2013-02-08 01:29:00,
2013-02-07 20:35:00,-3.1,-3.7,29.53,NNE,20,0.0,0.0,97,0.00,,,0.00,VWS V14.01,2013-02-08 01:35:00,
2013-02-07 20:40:00,-3.1,-3.7,29.53,NNE,22,0.0,0.0,97,0.00,,,0.00,VWS V14.01,2013-02-08 01:40:00,
2013-02-07 20:46:00,-3.1,-3.7,29.53,NNE,22,0.0,0.0,97,0.00,,,0.00,VWS V14.01,2013-02-08 01:46:00,
2013-02-07 20:51:00,-3.1,-3.7,29.53,NNE,21,0.0,0.0,97,0.00,,,0.00,VWS V14.01,2013-02-08 01:51:00,
2013-02-07 20:57:00,-3.1,-3.7,29.53,NNE,18,0.0,0.0,97,0.00,,,0.00,VWS V14.01,2013-02-08 01:57:00,
2013-02-07 21:03:00,-3.1,-3.7,29.53,NNE,21,0.0,0.0,97,0.00,,,0.00,VWS V14.01,2013-02-08 02:03:00,
2013-02-07 21:08:00,-3.1,-3.7,29.53,NNE,19,0.0,0.0,97,0.00,,,0.00,VWS V14.01,2013-02-08 02:08:00,
2013-02-07 21:14:00,-3.1,-3.7,29.53,NNE,23,0.0,0.0,97,0.00,,,0.00,VWS V14.01,2013-02-08 02:14:00,
2013-02-07 21:19:00,-3.1,-3.7,29.53,NNE,20,0.0,0.0,97,0.00,,,0.00,VWS V14.01,2013-02-08 02:19:00,
2013-02-07 21:25:00,-3.1,-3.7,29.53,NNE,23,0.0,0.0,97,0.00,,,0.00,VWS V14.01,2013-02-08 02:25:00,
2013-02-07 21:30:00,-3.1,-3.7,29.53,NNE,22,0.0,0.0,97,0.00,,,0.00,VWS V14.01,2013-02-08 02:30:00,
2013-02-07 21:36:00,-3.1,-3.7,29.53,NNE,21,0.0,0.0,97,0.00,,,0.00,VWS V14.01,2013-02-08 02:36:00,
2013-02-07 21:41:00,-3.1,-3.7,29.53,NNE,23,0.0,0.0,97,0.00,,,0.00,VWS V14.01,2013-02-08 02:41:00,
2013-02-07 21:47:00,-3.1,-3.7,29.53,NNE,20,0.0,0.0,97,0.00,,,0.00,VWS V14.01,2013-02-08 02:47:00,
2013-02-07 21:53:00,-3.1,-3.7,29.53,NNE,12,0.0,0.0,97,0.00,,,0.00,VWS V14.01,2013-02-08 02:53:00,
2013-02-07 21:58:00,-3.1,-3.7,29.53,NNE,16,0.0,0.0,97,0.00,,,0.00,VWS V14.01,2013-02-08 02:58:00,
2013-02-07 22:04:00,-3.1,-3.7,29.53,NNE,22,0.0,0.0,97,0.00,,,0.00,VWS V14.01,2013-02-08 03:04:00,
2013-02-07 22:09:00,-3.1,-3.7,29.53,NNE,13,0.0,0.0,97,0.00,,,0.00,VWS V14.01,2013-02-08 03:09:00,
2013-02-07 22:15:00,-3.1,-3.7,29.53,NNE,16,0.0,0.0,97,0.00,,,0.00,VWS V14.01,2013-02-08 03:15:00,
2013-02-07 22:20:00,-3.1,-3.7,29.53,NNE,21,0.0,0.0,97,0.00,,,0.00,VWS V14.01,2013-02-08 03:20:00,
2013-02-07 22:25:00,-3.1,-3.7,29.53,NNE,16,0.0,0.0,97,0.00,,,0.00,VWS V14.01,2013-02-08 03:25:00,
2013-02-07 22:31:00,-3.1,-3.7,29.53,NNE,16,0.0,0.0,97,0.00,,,0.00,VWS V14.01,2013-02-08 03:31:00,
2013-02-07 22:37:00,-3.1,-3.7,29.53,NNE,18,0.0,0.0,97,0.00,,,0.00,VWS V14.01,2013-02-08 03:37:00,
2013-02-07 22:43:00,-3.1,-3.7,29.53,NNE,19,0.0,0.0,97,0.00,,,0.00,VWS V14.01,2013-02-08 03:43:00,
2013-02-07 22:48:00,-3.1,-3.7,29.50,NNE,19,0.0,0.0,97,0.00,,,0.00,VWS V14.01,2013-02-08 03:48:00,
2013-02-07 22:54:00,-3.1,-3.7,29.50,NNE,20,0.0,0.0,97,0.00,,,0.00,VWS V14.01,2013-02-08 03:54:00,
2013-02-07 22:59:00,-3.1,-3.7,29.50,North,10,0.0,0.0,97,0.00,,,0.00,VWS V14.01,2013-02-08 03:59:00,
2013-02-07 23:05:00,-3.1,-3.7,29.50,NNE,21,0.0,0.0,97,0.00,,,0.00,VWS V14.01,2013-02-08 04:05:00,
2013-02-07 23:10:00,-3.1,-3.7,29.50,NNE,18,0.0,0.0,97,0.00,,,0.00,VWS V14.01,2013-02-08 04:10:00,
2013-02-07 23:16:00,-3.1,-3.7,29.50,NNE,14,0.0,0.0,97,0.00,,,0.00,VWS V14.01,2013-02-08 04:16:00,
2013-02-07 23:21:00,-3.1,-3.7,29.50,NNE,13,0.0,0.0,97,0.00,,,0.00,VWS V14.01,2013-02-08 04:21:00,
2013-02-07 23:27:00,-3.1,-3.7,29.50,NNE,22,0.0,0.0,97,0.00,,,0.00,VWS V14.01,2013-02-08 04:27:00,
2013-02-07 23:33:00,-3.1,-3.7,29.50,NNE,19,0.0,0.0,97,0.00,,,0.00,VWS V14.01,2013-02-08 04:33:00,
2013-02-07 23:38:00,-3.1,-3.7,29.50,NNE,21,0.0,0.0,97,0.00,,,0.00,VWS V14.01,2013-02-08 04:38:00,
2013-02-07 23:44:00,-3.1,-3.7,29.47,North,6,0.0,0.0,97,0.00,,,0.00,VWS V14.01,2013-02-08 04:44:00,
2013-02-07 23:49:00,-3.1,-3.7,29.47,NNE,13,0.0,0.0,97,0.00,,,0.00,VWS V14.01,2013-02-08 04:49:00,
2013-02-07 23:55:00,-3.1,-3.7,29.47,NNE,13,0.0,0.0,97,0.00,,,0.00,VWS V14.01,2013-02-08 04:55:00,